M8FSI-13 Weather Reports


Display with metric or nautical units.
time (UTC)temp
F
wind
direction
speed
MPH
gust
MPH
rain 1hr
in
rain 24hr
in
rain mn
in
humidity
%
barometer
mb
20260510124533 52 45 4.0 9.0 0.03 0.07 0.07 83 1015.9
20260510123604 52 293 3.0 11.0 0.05 0.07 0.07 83 1015.6
20260510122558 52 23 4.0 12.0 0.05 0.07 0.07 84 1015.5
20260510121539 52 315 3.0 8.0 0.05 0.07 0.07 84 1015.7
20260510120520 52 45 4.0 12.0 0.04 0.06 0.06 83 1016.0
20260510115616 52 45 4.0 10.0 0.03 0.05 0.05 82 1016.3
20260510114536 52 45 2.0 10.0 0.02 0.04 0.04 82 1016.4
20260510113541 52 45 3.0 14.0 0.02 0.02 0.02 80 1016.5
20260510112534 52 45 4.0 8.0 0.02 0.02 0.02 79 1016.6
20260510111540 52 45 6.0 15.0 0.02 0.02 0.02 77 1016.6
20260510110520 53 45 8.0 14.0 0.02 0.02 0.02 77 1016.4
20260510105519 53 68 5.0 13.0 0.01 0.02 0.02 78 1016.7
20260510104520 53 23 4.0 9.0 0.02 0.02 0.02 78 1016.8
20260510103609 53 45 6.0 15.0 0.01 0.01 0.01 77 1016.9
20260510102540 52 45 6.0 11.0 0.01 0.01 0.01 78 1016.8
20260510101519 52 68 4.0 11.0 0.01 0.01 0.01 79 1016.8
20260510100620 52 68 5.0 9.0 0.01 0.01 0.01 79 1016.9
20260510095521 52 68 5.0 9.0 0.01 0.01 0.01 79 1016.9
20260510094520 52 45 4.0 11.0 0.00 0.00 0.00 78 1016.6
20260510093540 52 23 5.0 15.0 0.00 0.00 0.00 76 1016.6
20260510092540 52 45 6.0 14.0 0.00 0.00 0.00 75 1016.6
20260510091549 52 45 5.0 13.0 0.00 0.00 0.00 75 1016.7
20260510090519 52 45 6.0 16.0 0.00 0.00 0.00 74 1016.7
20260510085520 52 45 7.0 17.0 0.00 0.00 0.00 74 1016.8
20260510084540 52 45 9.0 18.0 0.00 0.00 0.00 73 1016.9
20260510083600 52 45 9.0 17.0 0.00 0.00 0.00 73 1016.7
20260510082520 52 45 9.0 16.0 0.00 0.00 0.00 73 1016.7
20260510081520 52 45 8.0 14.0 0.00 0.00 0.00 72 1016.7
20260510080539 52 45 8.0 15.0 0.00 0.00 0.00 72 1016.6
20260510075534 52 45 7.0 17.0 0.00 0.00 0.00 72 1016.7
20260510074540 52 45 6.0 15.0 0.00 0.00 0.00 73 1016.6
20260510073558 52 68 6.0 13.0 0.00 0.00 0.00 73 1016.6
20260510072521 52 45 7.0 13.0 0.00 0.00 0.00 74 1016.7
20260510071520 52 68 6.0 13.0 0.00 0.00 0.00 75 1016.8
20260510070549 52 45 3.0 8.0 0.00 0.00 0.00 75 1016.9
20260510065519 52 68 3.0 8.0 0.00 0.00 0.00 75 1017.0
20260510064521 52 45 3.0 5.0 0.00 0.00 0.00 76 1017.0
20260510063555 51 23 2.0 6.0 0.00 0.00 0.00 76 1017.2
20260510062519 51 45 3.0 9.0 0.00 0.00 0.00 76 1017.2
20260510061521 51 45 3.0 9.0 0.00 0.00 0.00 76 1017.2
20260510060520 51 45 3.0 9.0 0.00 0.00 0.00 76 1017.3
20260510055534 51 23 2.0 6.0 0.00 0.00 0.00 76 1017.2
20260510054549 51 45 5.0 9.0 0.00 0.00 0.00 75 1017.2
20260510053559 51 45 5.0 12.0 0.00 0.00 0.00 75 1017.3
20260510052535 51 45 6.0 12.0 0.00 0.00 0.00 76 1017.2
20260510051534 51 45 4.0 9.0 0.00 0.00 0.00 75 1017.0
20260510050549 51 45 4.0 11.0 0.00 0.00 0.00 75 1017.1
20260510045519 51 45 3.0 8.0 0.00 0.00 0.00 75 1017.1
20260510044536 51 45 4.0 9.0 0.00 0.00 0.00 75 1017.0
20260510043520 51 45 5.0 11.0 0.00 0.00 0.00 75 1016.9
20260510042534 51 23 5.0 13.0 0.00 0.00 0.00 74 1017.1
20260510041520 51 23 2.0 5.0 0.00 0.00 0.00 74 1016.9
20260510040534 52 315 3.0 9.0 0.00 0.00 0.00 73 1017.0
20260510035535 52 45 4.0 12.0 0.00 0.00 0.00 73 1016.9
20260510034520 52 45 4.0 9.0 0.00 0.00 0.00 72 1016.9
20260510033554 52 45 4.0 10.0 0.00 0.00 0.00 71 1017.0
20260510032534 53 45 3.0 11.0 0.00 0.00 0.00 71 1017.2
20260510031519 53 45 5.0 13.0 0.00 0.00 0.00 71 1017.2
20260510030600 53 45 6.0 11.0 0.00 0.00 0.00 70 1017.2
20260510025548 53 45 4.0 9.0 0.00 0.00 0.00 69 1017.2
20260510024520 53 45 6.0 10.0 0.00 0.00 0.00 70 1017.2
20260510023535 53 45 6.0 15.0 0.00 0.00 0.00 70 1017.1
20260510022535 53 45 7.0 14.0 0.00 0.00 0.00 69 1017.2
20260510021520 53 68 5.0 9.0 0.00 0.00 0.00 69 1017.3
20260510020534 53 45 5.0 10.0 0.00 0.00 0.00 68 1017.3
20260510015520 54 45 6.0 10.0 0.00 0.00 0.00 66 1017.3
20260510014519 54 45 4.0 7.0 0.00 0.00 0.00 65 1017.4
20260510013521 54 68 4.0 8.0 0.00 0.00 0.00 64 1017.5
20260510012520 54 45 4.0 7.0 0.00 0.00 0.00 63 1017.4
20260510011519 54 68 4.0 8.0 0.00 0.00 0.00 62 1017.4
20260510010535 54 45 3.0 6.0 0.00 0.00 0.00 60 1017.5
20260510005520 55 68 4.0 11.0 0.00 0.00 0.00 59 1017.5
20260510004519 55 68 4.0 10.0 0.00 0.00 0.00 58 1017.4
20260510003540 55 68 5.0 11.0 0.00 0.00 0.00 58 1017.3
20260510002519 55 68 5.0 11.0 0.00 0.00 0.00 59 1017.3
20260510001534 55 68 4.0 10.0 0.00 0.00 0.00 58 1017.5
20260510000520 56 90 6.0 12.0 0.00 0.00 0.00 57 1017.4
20260509235554 56 68 4.0 11.0 0.00 0.00 0.00 56 1017.1
20260509234520 56 68 5.0 11.0 0.00 0.00 0.00 55 1016.9
20260509233520 56 68 5.0 9.0 0.00 0.00 0.00 54 1017.1
20260509232534 56 68 5.0 10.0 0.00 0.00 0.00 52 1017.0
20260509231540 56 45 6.0 11.0 0.00 0.00 0.00 51 1017.2
20260509230539 56 68 6.0 11.0 0.00 0.00 0.00 50 1017.1
20260509225519 57 68 6.0 11.0 0.00 0.00 0.00 49 1017.1
20260509224548 57 68 7.0 11.0 0.00 0.00 0.00 48 1017.1
20260509223519 57 68 7.0 13.0 0.00 0.00 0.00 47 1017.1
20260509222520 57 45 6.0 11.0 0.00 0.00 0.00 46 1017.0
20260509221520 57 45 6.0 11.0 0.00 0.00 0.00 45 1017.0
20260509220518 58 68 8.0 14.0 0.00 0.00 0.00 44 1017.0
20260509215539 58 68 9.0 16.0 0.00 0.00 0.00 43 1016.9
20260509214518 58 45 7.0 14.0 0.00 0.00 0.00 43 1016.9
20260509213619 58 45 7.0 13.0 0.00 0.00 0.00 44 1017.0
20260509212519 58 45 7.0 14.0 0.00 0.00 0.00 44 1016.9
20260509211518 59 45 5.0 12.0 0.00 0.00 0.00 44 1017.1
20260509210539 59 45 7.0 12.0 0.00 0.00 0.00 45 1017.0
20260509205533 59 45 6.0 15.0 0.00 0.00 0.00 45 1016.9
20260509204518 59 45 7.0 17.0 0.00 0.00 0.00 45 1016.8
20260509203518 59 45 7.0 15.0 0.00 0.00 0.00 45 1016.6
20260509202534 60 45 8.0 16.0 0.00 0.00 0.00 44 1016.5
20260509201535 60 45 8.0 13.0 0.00 0.00 0.00 42 1016.5
20260509200554 61 45 7.0 14.0 0.00 0.00 0.00 40 1016.4
20260509195518 61 45 8.0 17.0 0.00 0.00 0.00 41 1016.4
20260509194533 61 45 5.0 10.0 0.00 0.00 0.00 48 1016.3
20260509193554 62 45 5.0 9.0 0.00 0.00 0.00 50 1016.3
20260509192520 62 45 5.0 8.0 0.00 0.00 0.00 51 1016.5
20260509191554 62 45 3.0 8.0 0.00 0.00 0.00 51 1016.5
20260509190518 63 45 4.0 10.0 0.00 0.00 0.00 51 1016.4
20260509185518 64 45 6.0 12.0 0.00 0.00 0.00 50 1016.2
20260509184557 64 45 5.0 9.0 0.00 0.00 0.00 50 1016.1
20260509183518 64 45 5.0 7.0 0.00 0.00 0.00 50 1016.0
20260509182558 65 45 5.0 9.0 0.00 0.00 0.00 50 1016.0
20260509181518 65 68 5.0 12.0 0.00 0.00 0.00 49 1016.2
20260509180553 66 68 5.0 8.0 0.00 0.00 0.00 49 1016.0
20260509175533 66 68 6.0 14.0 0.00 0.00 0.00 49 1015.8
20260509174538 67 68 6.0 12.0 0.00 0.00 0.00 48 1015.9
20260509173538 67 68 6.0 12.0 0.00 0.00 0.00 48 1015.9
20260509172602 68 68 6.0 11.0 0.00 0.00 0.00 47 1015.7
20260509171553 68 68 5.0 11.0 0.00 0.00 0.00 47 1015.6
20260509170536 69 68 6.0 10.0 0.00 0.00 0.00 45 1015.5
20260509165518 69 68 6.0 14.0 0.00 0.00 0.00 44 1015.4
20260509164520 69 68 5.0 11.0 0.00 0.00 0.00 45 1015.5
20260509163521 69 68 6.0 11.0 0.00 0.00 0.00 45 1015.5
20260509162538 68 68 2.0 5.0 0.00 0.00 0.00 46 1015.5
20260509161536 69 68 4.0 9.0 0.00 0.00 0.00 43 1015.6
20260509160521 70 90 5.0 8.0 0.00 0.00 0.00 44 1015.5
20260509155519 69 90 4.0 10.0 0.00 0.00 0.00 46 1015.5
20260509154520 69 135 7.0 10.0 0.00 0.00 0.00 46 1015.6
20260509153539 70 113 10.0 14.0 0.00 0.00 0.00 46 1015.9
20260509152518 69 135 10.0 15.0 0.00 0.00 0.00 45 1015.9
20260509151518 69 113 10.0 13.0 0.00 0.00 0.00 47 1016.2
20260509150518 69 113 9.0 13.0 0.00 0.00 0.00 47 1016.2
20260509145539 68 113 10.0 13.0 0.00 0.00 0.00 49 1016.5
20260509144518 68 113 12.0 17.0 0.00 0.00 0.00 47 1016.7
20260509143520 68 135 11.0 15.0 0.00 0.00 0.00 48 1016.5
20260509142520 68 113 12.0 17.0 0.00 0.00 0.00 47 1016.4
20260509141520 68 113 10.0 13.0 0.00 0.00 0.00 49 1016.4
20260509140541 68 113 9.0 13.0 0.00 0.00 0.00 49 1016.4
20260509135520 68 135 10.0 12.0 0.00 0.00 0.00 52 1016.3
20260509134600 69 90 7.0 12.0 0.00 0.00 0.00 47 1016.3
20260509133521 69 68 8.0 15.0 0.00 0.00 0.00 44 1016.2
20260509132518 70 90 6.0 13.0 0.00 0.00 0.00 44 1016.1
20260509131609 68 68 5.0 10.0 0.00 0.00 0.00 46 1016.3
20260509130535 70 68 4.0 10.0 0.00 0.00 0.00 45 1016.6
20260509125549 70 45 5.0 11.0 0.00 0.00 0.00 42 1016.6